Arcata, CA

1:01 PM PDT on July 20, 2017 (GMT -0700)
Arcata

Weather History for KACV - January, 2014

Change the Weather History Date:

Monday, January 27, 2014

  Actual Average Record
Temperature  
Mean Temperature 46 °F -  
Max Temperature 53 °F 54 °F 63 °F (2011)
Min Temperature 39 °F 39 °F 29 °F (1999)
Degree Days  
Heating Degree Days 19    
Moisture  
Dew Point 43 °F    
Average Humidity 84    
Maximum Humidity 93    
Minimum Humidity 66    
Precipitation  
Precipitation 0.01 in - - ()
Sea Level Pressure  
Sea Level Pressure 30.17 in    
Wind  
Wind Speed 2 mph (SE)    
Max Wind Speed 6 mph    
Max Gust Speed -    
Visibility 8 miles    
Events      
Averages and records for this station are not official NWS values.
T = Trace of Precipitation, MM = Missing Value Source: NWS Daily Summary

Daily Weather History Graph

Daily Weather History Graph

Search for Another Location

Airport or City:

Trip Planner

Search our weather history database for the weather conditions in past years. The results will help you decide how hot, cold, wet, or windy it might be!

Date:

Astronomy

Jan. 27, 2014 Rise Set
Actual Time 7:31 AM PST 5:27 PM PST
Civil Twilight 7:01 AM PST 5:56 PM PST
Nautical Twilight 6:28 AM PST 6:30 PM PST
Astronomical Twilight 5:56 AM PST 7:02 PM PST
Moon 4:18 AM PST (1/27) 2:19 PM PST (1/27)
Length of Visible Light 10h 54m
Length of Day
9h 56m
Waning Crescent, 14% of the Moon is Illuminated
Jan 27
Waning Crescent
Jan 30
New
Feb 6
First Quarter
Feb 14
Full
Feb 22
Last Quarter

Hourly Weather History & Observations

Time (PST) Temp. Windchill Dew Point Humidity Pressure Visibility Wind Dir Wind Speed Gust Speed Precip Events Conditions
12:53 AM 39.9 °F - 37.0 °F 89% 30.09 in 9.0 mi Calm Calm - N/A   Clear
1:53 AM 39.0 °F - 36.0 °F 89% 30.12 in 10.0 mi Calm Calm - N/A   Clear
2:53 AM 39.0 °F 36.8 °F 37.0 °F 93% 30.13 in 10.0 mi East 3.5 mph - N/A   Clear
3:53 AM 41.0 °F 38.0 °F 37.9 °F 89% 30.15 in 10.0 mi ESE 4.6 mph - N/A   Clear
4:53 AM 41.0 °F 39.0 °F 37.9 °F 89% 30.14 in 10.0 mi East 3.5 mph - N/A   Clear
5:53 AM 43.0 °F 40.3 °F 39.0 °F 86% 30.13 in 10.0 mi East 4.6 mph - N/A   Clear
6:53 AM 42.1 °F 40.2 °F 37.9 °F 85% 30.13 in 10.0 mi East 3.5 mph - N/A   Clear
7:53 AM 45.0 °F 41.8 °F 37.9 °F 76% 30.16 in 10.0 mi SSW 5.8 mph - N/A   Clear
8:16 AM 44.1 °F 42.5 °F 37.9 °F 79% 30.15 in 10.0 mi ESE 3.5 mph - N/A   Scattered Clouds
8:53 AM 45.0 °F 43.5 °F 41.0 °F 86% 30.18 in 10.0 mi East 3.5 mph - N/A   Clear
9:53 AM 50.0 °F - 42.1 °F 74% 30.20 in 10.0 mi Calm Calm - N/A   Clear
10:53 AM 50.0 °F - 42.1 °F 74% 30.20 in 10.0 mi SSE 3.5 mph - N/A   Scattered Clouds
11:53 AM 53.1 °F - 42.1 °F 66% 30.19 in 10.0 mi Calm Calm - N/A   Mostly Cloudy
12:53 PM 51.1 °F - 46.0 °F 83% 30.18 in 8.0 mi West 4.6 mph - N/A   Overcast
1:53 PM 53.1 °F - 46.9 °F 80% 30.15 in 6.0 mi Calm Calm - N/A   Haze
2:42 PM 51.1 °F - 46.9 °F 86% 30.14 in 6.0 mi WSW 4.6 mph - N/A   Mostly Cloudy
2:53 PM 51.1 °F - 46.9 °F 86% 30.17 in 7.0 mi WSW 5.8 mph - N/A   Scattered Clouds
3:53 PM 52.0 °F - 46.9 °F 83% 30.19 in 10.0 mi South 3.5 mph - N/A   Overcast
4:53 PM 53.1 °F - 46.9 °F 80% 30.18 in 9.0 mi Calm Calm - N/A   Overcast
5:25 PM 52.0 °F - 46.9 °F 83% 30.16 in 2.5 mi Calm Calm - N/A   Haze
5:34 PM 51.1 °F - 46.9 °F 86% 30.15 in 7.0 mi Calm Calm - N/A   Overcast
5:53 PM 51.1 °F - 46.9 °F 86% 30.18 in 8.0 mi Calm Calm - N/A   Overcast
6:53 PM 51.1 °F - 46.9 °F 86% 30.19 in 8.0 mi Calm Calm - N/A   Overcast
7:53 PM 50.0 °F - 46.9 °F 89% 30.20 in 8.0 mi Calm Calm - 0.00 in   Overcast
8:37 PM 48.9 °F - 46.9 °F 93% 30.19 in 5.0 mi Calm Calm - 0.01 in   Overcast
8:53 PM 50.0 °F - 46.9 °F 89% 30.20 in 5.0 mi East 3.5 mph - 0.01 in   Mostly Cloudy
9:53 PM 50.0 °F - 46.9 °F 89% 30.19 in 7.0 mi East 3.5 mph - N/A   Overcast
10:53 PM 51.1 °F - 46.9 °F 86% 30.19 in 10.0 mi Calm Calm - 0.00 in   Mostly Cloudy
11:53 PM 50.0 °F - 46.0 °F 86% 30.21 in 10.0 mi Calm Calm - N/A   Overcast